Regional Weather Roundup
Issued by NWS

Home | Current Version | Previous Version | Graphics & Text | Print | Product List | Glossary On
Versions: 1 2 3 4 5 6 7 8 9 10 11 12 13 14 15 16 17 18 19 20 21 22 23 24 25 26 27 28 29 30 31 32 33 34 35 36 37 38 39 40 41 42 43 44 45 46 47 48 49 50
000
ASUS43 KLMK 232002
RWRKY
KENTUCKY REGIONAL WEATHER ROUNDUP
NATIONAL WEATHER SERVICE LOUISVILLE KY
400 PM EDT SUN APR 23 2017

NOTE "FAIR" INDICATES FEW OR NO CLOUDS BELOW 12,000 FEET
WITH NO SIGNIFICANT WEATHER AND/OR OBSTRUCTIONS TO VISIBILITY.

KYZ001>023-026-027-061>063-070>075-232100-
WESTERN AND SOUTH CENTRAL KENTUCKY

CITY           SKY/WX    TMP DP  RH WIND       PRES   REMARKS
PADUCAH        SUNNY     68  41  37 NE22G31   29.91S
HENDERSON      SUNNY     71  38  29 NE18G24   29.91F
OWENSBORO      CLOUDY    67  39  35 NE15      29.90F
HOPKINSVILLE   CLOUDY    54  48  82 N17       29.88F
BOWLING GREEN  CLOUDY    54  49  83 NE10      29.89F
GLASGOW        NOT AVBL
$$

KYZ024-025-028>034-038-045-046-053-232100-
NORTH CENTRAL KENTUCKY

CITY           SKY/WX    TMP DP  RH WIND       PRES   REMARKS
LOUISVILLE/SDF CLOUDY    60  40  47 NE16      29.93F
LOUISVILLE/LOU CLOUDY    60  39  45 E10       29.94F
FORT KNOX      RAIN      54  47  78 NE9       29.91F
$$

KYZ035>037-039>044-047>052-055>060-089>105-232100-
NORTHEAST KENTUCKY

CITY           SKY/WX    TMP DP  RH WIND       PRES   REMARKS
LEXINGTON      CLOUDY    53  48  83 NE13      29.94F
COVINGTON      PTSUNNY   62  36  37 NE16      29.97F
FRANKFORT      CLOUDY    56  46  69 NE5       29.93F
$$

KYZ054-064>069-076>088-106>120-232100-
SOUTHEAST KENTUCKY

CITY           SKY/WX    TMP DP  RH WIND       PRES   REMARKS
JACKSON        LGT RAIN  50  50 100 VRB3      29.91S FOG
LONDON         LGT RAIN  51  49  92 N12       29.88R
SOMERSET       NOT AVBL
MIDDLESBORO    RAIN      55  54  98 CALM      29.84S
MONTICELLO     LGT RAIN  51  49  92 N15G24    29.87F
$$




USA.gov is the U.S. government's official web portal to all federal, state and local government web resources and services.